| time (UTC) | temp C | wind direction | speed KPH | gust KPH | rain 1hr cm | rain 24hr cm | rain mn cm | humidity % | barometer mb |
| 20260507133055 | 12 | 359 | 0.0 | 0.0 | 0.00 | 0.00 | 0.00 | 34 | 1017.9 |
| 20260507132552 | 11 | 55 | 0.0 | 0.0 | 0.00 | 0.00 | 0.00 | 33 | 1018.0 |
| 20260507132048 | 12 | 26 | 0.0 | 1.6 | 0.00 | 0.00 | 0.00 | 33 | 1018.1 |
| 20260507131545 | 11 | 52 | 0.0 | 0.0 | 0.00 | 0.00 | 0.00 | 33 | 1018.2 |
| 20260507131042 | 11 | 50 | 0.0 | 0.0 | 0.00 | 0.00 | 0.00 | 34 | 1017.9 |
| 20260507130539 | 11 | 185 | 0.0 | 0.0 | 0.00 | 0.00 | 0.00 | 33 | 1018.0 |
| 20260507130037 | 11 | 233 | 0.0 | 0.0 | 0.00 | 0.00 | 0.00 | 35 | 1018.1 |
| 20260507125535 | 11 | 204 | 0.0 | 0.0 | 0.00 | 0.00 | 0.00 | 34 | 1017.9 |
| 20260507125033 | 11 | 226 | 0.0 | 3.2 | 0.00 | 0.00 | 0.00 | 34 | 1018.0 |
| 20260507124529 | 10 | 230 | 0.0 | 0.0 | 0.00 | 0.00 | 0.00 | 36 | 1018.0 |
| 20260507124027 | 11 | 243 | 0.0 | 0.0 | 0.00 | 0.00 | 0.00 | 35 | 1018.1 |
| 20260507123525 | 11 | 210 | 0.0 | 4.8 | 0.00 | 0.00 | 0.00 | 34 | 1018.2 |
| 20260507123021 | 11 | 217 | 3.2 | 3.2 | 0.00 | 0.00 | 0.00 | 35 | 1018.1 |
| 20260507122516 | 11 | 352 | 0.0 | 0.0 | 0.00 | 0.00 | 0.00 | 34 | 1017.9 |
| 20260507122013 | 11 | 352 | 0.0 | 1.6 | 0.00 | 0.00 | 0.00 | 34 | 1017.6 |
| 20260507121508 | 11 | 30 | 0.0 | 0.0 | 0.00 | 0.00 | 0.00 | 34 | 1017.8 |
| 20260507121004 | 11 | 7 | 0.0 | 0.0 | 0.00 | 0.00 | 0.00 | 34 | 1017.9 |
| 20260507120500 | 11 | 9 | 0.0 | 0.0 | 0.00 | 0.00 | 0.00 | 34 | 1017.8 |
| 20260507115957 | 11 | 47 | 0.0 | 0.0 | 0.00 | 0.00 | 0.00 | 34 | 1017.6 |
| 20260507115454 | 10 | 290 | 0.0 | 0.0 | 0.00 | 0.00 | 0.00 | 35 | 1017.8 |
| 20260507114949 | 10 | 16 | 0.0 | 0.0 | 0.00 | 0.00 | 0.00 | 36 | 1017.9 |
| 20260507114446 | 11 | 52 | 0.0 | 0.0 | 0.00 | 0.00 | 0.00 | 35 | 1017.6 |
| 20260507113943 | 11 | 34 | 0.0 | 0.0 | 0.00 | 0.00 | 0.00 | 34 | 1017.6 |
| 20260507113440 | 11 | 83 | 0.0 | 0.0 | 0.00 | 0.00 | 0.00 | 34 | 1017.8 |
| 20260507112938 | 11 | 53 | 0.0 | 0.0 | 0.00 | 0.00 | 0.00 | 33 | 1017.8 |
| 20260507112435 | 11 | 239 | 0.0 | 0.0 | 0.00 | 0.00 | 0.00 | 33 | 1018.0 |
| 20260507111932 | 11 | 122 | 0.0 | 0.0 | 0.00 | 0.00 | 0.00 | 33 | 1017.9 |
| 20260507111429 | 11 | 273 | 0.0 | 0.0 | 0.00 | 0.00 | 0.00 | 33 | 1018.1 |
| 20260507110925 | 11 | 290 | 0.0 | 0.0 | 0.00 | 0.00 | 0.00 | 33 | 1017.8 |
| 20260507110421 | 11 | 265 | 0.0 | 0.0 | 0.00 | 0.00 | 0.00 | 34 | 1018.0 |
| 20260507105918 | 11 | 251 | 0.0 | 1.6 | 0.00 | 0.00 | 0.00 | 34 | 1017.9 |
| 20260507105415 | 11 | 279 | 0.0 | 0.0 | 0.00 | 0.00 | 0.00 | 35 | 1017.9 |
| 20260507104912 | 11 | 263 | 0.0 | 0.0 | 0.00 | 0.00 | 0.00 | 35 | 1017.9 |
| 20260507104409 | 11 | 75 | 0.0 | 0.0 | 0.00 | 0.00 | 0.00 | 35 | 1018.2 |
| 20260507103904 | 11 | 61 | 0.0 | 1.6 | 0.00 | 0.00 | 0.00 | 35 | 1018.1 |
| 20260507103402 | 10 | 247 | 0.0 | 0.0 | 0.00 | 0.00 | 0.00 | 36 | 1018.0 |
| 20260507102857 | 10 | 239 | 0.0 | 0.0 | 0.00 | 0.00 | 0.00 | 37 | 1018.2 |
| 20260507102354 | 11 | 50 | 0.0 | 0.0 | 0.00 | 0.00 | 0.00 | 37 | 1018.2 |
| 20260507101850 | 11 | 144 | 0.0 | 0.0 | 0.00 | 0.00 | 0.00 | 37 | 1017.9 |
| 20260507101345 | 11 | 163 | 0.0 | 0.0 | 0.00 | 0.00 | 0.00 | 37 | 1018.2 |
| 20260507100842 | 11 | 95 | 0.0 | 3.2 | 0.00 | 0.00 | 0.00 | 37 | 1018.1 |
| 20260507100340 | 11 | 143 | 0.0 | 0.0 | 0.00 | 0.00 | 0.00 | 36 | 1018.2 |
| 20260507095838 | 11 | 193 | 1.6 | 3.2 | 0.00 | 0.00 | 0.00 | 38 | 1018.1 |
| 20260507095334 | 11 | 225 | 1.6 | 3.2 | 0.00 | 0.00 | 0.00 | 39 | 1018.2 |
| 20260507094832 | 11 | 221 | 3.2 | 4.8 | 0.00 | 0.00 | 0.00 | 40 | 1018.2 |
| 20260507094328 | 10 | 204 | 1.6 | 4.8 | 0.00 | 0.00 | 0.00 | 40 | 1018.4 |
| 20260507093825 | 11 | 245 | 1.6 | 3.2 | 0.00 | 0.00 | 0.00 | 39 | 1018.4 |
| 20260507093324 | 11 | 133 | 0.0 | 4.8 | 0.00 | 0.00 | 0.00 | 38 | 1018.8 |
| 20260507092821 | 11 | 231 | 1.6 | 3.2 | 0.00 | 0.00 | 0.00 | 39 | 1018.6 |
| 20260507092318 | 11 | 199 | 0.0 | 1.6 | 0.00 | 0.00 | 0.00 | 38 | 1018.7 |
| 20260507091814 | 11 | 136 | 0.0 | 0.0 | 0.00 | 0.00 | 0.00 | 35 | 1018.7 |
| 20260507091310 | 11 | 208 | 0.0 | 0.0 | 0.00 | 0.00 | 0.00 | 34 | 1018.6 |
| 20260507090805 | 11 | 258 | 0.0 | 0.0 | 0.00 | 0.00 | 0.00 | 33 | 1018.6 |
| 20260507090302 | 11 | 141 | 0.0 | 0.0 | 0.00 | 0.00 | 0.00 | 32 | 1018.4 |
| 20260507085759 | 11 | 253 | 0.0 | 3.2 | 0.00 | 0.00 | 0.00 | 33 | 1018.7 |
| 20260507085256 | 11 | 245 | 0.0 | 0.0 | 0.00 | 0.00 | 0.00 | 35 | 1018.7 |
| 20260507084753 | 11 | 92 | 0.0 | 0.0 | 0.00 | 0.00 | 0.00 | 34 | 1018.8 |
| 20260507084249 | 11 | 95 | 0.0 | 0.0 | 0.00 | 0.00 | 0.00 | 34 | 1018.7 |
| 20260507083747 | 11 | 32 | 0.0 | 0.0 | 0.00 | 0.00 | 0.00 | 34 | 1018.8 |
| 20260507083244 | 11 | 29 | 0.0 | 0.0 | 0.00 | 0.00 | 0.00 | 34 | 1018.7 |
| 20260507082740 | 11 | 82 | 0.0 | 0.0 | 0.00 | 0.00 | 0.00 | 34 | 1018.9 |
| 20260507082236 | 11 | 82 | 0.0 | 0.0 | 0.00 | 0.00 | 0.00 | 34 | 1018.8 |
| 20260507081732 | 11 | 94 | 0.0 | 1.6 | 0.00 | 0.00 | 0.00 | 32 | 1018.8 |
| 20260507081228 | 11 | 166 | 0.0 | 0.0 | 0.00 | 0.00 | 0.00 | 34 | 1019.3 |
| 20260507080725 | 12 | 333 | 0.0 | 1.6 | 0.00 | 0.00 | 0.00 | 32 | 1019.0 |
| 20260507080221 | 12 | 198 | 0.0 | 3.2 | 0.00 | 0.00 | 0.00 | 32 | 1018.8 |
| 20260507075717 | 12 | 242 | 3.2 | 4.8 | 0.00 | 0.00 | 0.00 | 33 | 1019.0 |
| 20260507075214 | 12 | 208 | 1.6 | 4.8 | 0.00 | 0.00 | 0.00 | 33 | 1018.9 |
| 20260507074710 | 12 | 228 | 1.6 | 4.8 | 0.00 | 0.00 | 0.00 | 33 | 1019.1 |
| 20260507074209 | 11 | 234 | 1.6 | 3.2 | 0.00 | 0.00 | 0.00 | 34 | 1018.9 |
| 20260507073704 | 11 | 141 | 0.0 | 0.0 | 0.00 | 0.00 | 0.00 | 35 | 1019.1 |
| 20260507073201 | 11 | 121 | 0.0 | 0.0 | 0.00 | 0.00 | 0.00 | 36 | 1018.9 |
| 20260507072659 | 10 | 145 | 0.0 | 0.0 | 0.00 | 0.00 | 0.00 | 36 | 1019.1 |
| 20260507072155 | 11 | 134 | 0.0 | 0.0 | 0.00 | 0.00 | 0.00 | 37 | 1019.4 |
| 20260507071653 | 11 | 144 | 0.0 | 0.0 | 0.00 | 0.00 | 0.00 | 36 | 1019.4 |
| 20260507071149 | 11 | 224 | 0.0 | 3.2 | 0.00 | 0.00 | 0.00 | 35 | 1019.5 |
| 20260507070647 | 11 | 238 | 1.6 | 3.2 | 0.00 | 0.00 | 0.00 | 34 | 1019.4 |
| 20260507070143 | 11 | 246 | 3.2 | 3.2 | 0.00 | 0.00 | 0.00 | 35 | 1019.3 |
| 20260507065639 | 11 | 225 | 3.2 | 3.2 | 0.00 | 0.00 | 0.00 | 35 | 1019.6 |
| 20260507065136 | 11 | 208 | 0.0 | 3.2 | 0.00 | 0.00 | 0.00 | 35 | 1019.3 |
| 20260507064634 | 10 | 132 | 0.0 | 0.0 | 0.00 | 0.00 | 0.00 | 36 | 1019.5 |
| 20260507064133 | 11 | 160 | 0.0 | 0.0 | 0.00 | 0.00 | 0.00 | 36 | 1019.5 |
| 20260507063630 | 10 | 171 | 0.0 | 0.0 | 0.00 | 0.00 | 0.00 | 36 | 1019.5 |
| 20260507063127 | 10 | 107 | 0.0 | 0.0 | 0.00 | 0.00 | 0.00 | 36 | 1019.6 |
| 20260507062623 | 10 | 167 | 0.0 | 0.0 | 0.00 | 0.00 | 0.00 | 37 | 1019.4 |
| 20260507062121 | 11 | 131 | 0.0 | 3.2 | 0.00 | 0.00 | 0.00 | 36 | 1019.6 |
| 20260507061619 | 11 | 258 | 0.0 | 3.2 | 0.00 | 0.00 | 0.00 | 34 | 1019.5 |
| 20260507061117 | 11 | 255 | 3.2 | 3.2 | 0.00 | 0.00 | 0.00 | 34 | 1019.4 |
| 20260507060615 | 11 | 215 | 1.6 | 4.8 | 0.00 | 0.00 | 0.00 | 33 | 1019.3 |
| 20260507060111 | 11 | 200 | 0.0 | 3.2 | 0.00 | 0.00 | 0.00 | 34 | 1019.3 |
| 20260507055606 | 11 | 231 | 0.0 | 0.0 | 0.00 | 0.28 | 0.28 | 34 | 1019.5 |
| 20260507055102 | 11 | 43 | 0.0 | 0.0 | 0.00 | 0.28 | 0.28 | 32 | 1019.4 |
| 20260507054558 | 12 | 208 | 0.0 | 0.0 | 0.00 | 0.28 | 0.28 | 31 | 1019.3 |
| 20260507054055 | 11 | 222 | 0.0 | 0.0 | 0.00 | 0.28 | 0.28 | 32 | 1019.3 |
| 20260507053553 | 11 | 224 | 0.0 | 1.6 | 0.00 | 0.28 | 0.28 | 33 | 1019.4 |
| 20260507053052 | 11 | 249 | 0.0 | 0.0 | 0.00 | 0.28 | 0.28 | 34 | 1019.4 |
| 20260507052549 | 10 | 168 | 0.0 | 0.0 | 0.00 | 0.28 | 0.28 | 36 | 1019.0 |
| 20260507052046 | 10 | 94 | 0.0 | 0.0 | 0.00 | 0.28 | 0.28 | 38 | 1019.4 |
| 20260507051543 | 10 | 203 | 0.0 | 0.0 | 0.00 | 0.28 | 0.28 | 37 | 1019.0 |
| 20260507051040 | 9 | 254 | 0.0 | 0.0 | 0.00 | 0.28 | 0.28 | 38 | 1019.0 |
| 20260507050536 | 9 | 274 | 0.0 | 0.0 | 0.00 | 0.28 | 0.28 | 40 | 1019.4 |
| 20260507050033 | 9 | 268 | 0.0 | 0.0 | 0.00 | 0.28 | 0.28 | 40 | 1019.3 |
| 20260507045530 | 10 | 253 | 0.0 | 0.0 | 0.00 | 0.28 | 0.28 | 38 | 1019.4 |
| 20260507045027 | 10 | 221 | 0.0 | 0.0 | 0.00 | 0.28 | 0.28 | 37 | 1019.4 |
| 20260507044524 | 10 | 260 | 0.0 | 0.0 | 0.00 | 0.28 | 0.28 | 38 | 1019.4 |
| 20260507044021 | 10 | 257 | 0.0 | 1.6 | 0.00 | 0.28 | 0.28 | 37 | 1019.6 |
| 20260507043516 | 10 | 247 | 0.0 | 0.0 | 0.00 | 0.28 | 0.28 | 39 | 1019.4 |
| 20260507043014 | 10 | 269 | 0.0 | 0.0 | 0.00 | 0.28 | 0.28 | 39 | 1019.4 |
| 20260507042510 | 10 | 227 | 0.0 | 0.0 | 0.00 | 0.28 | 0.28 | 40 | 1019.5 |
| 20260507042006 | 9 | 211 | 0.0 | 0.0 | 0.00 | 0.28 | 0.28 | 40 | 1019.4 |
| 20260507041503 | 9 | 210 | 0.0 | 0.0 | 0.00 | 0.28 | 0.28 | 40 | 1019.5 |
| 20260507041000 | 9 | 237 | 0.0 | 0.0 | 0.00 | 0.28 | 0.28 | 41 | 1019.4 |
| 20260507040455 | 9 | 212 | 0.0 | 1.6 | 0.00 | 0.28 | 0.28 | 41 | 1019.4 |
| 20260507035951 | 9 | 233 | 0.0 | 0.0 | 0.00 | 0.28 | 0.28 | 40 | 1019.5 |
| 20260507035448 | 10 | 229 | 0.0 | 1.6 | 0.00 | 0.28 | 0.28 | 40 | 1019.5 |
| 20260507034945 | 10 | 234 | 0.0 | 0.0 | 0.00 | 0.28 | 0.28 | 40 | 1019.5 |
| 20260507034442 | 10 | 235 | 0.0 | 0.0 | 0.00 | 0.28 | 0.28 | 40 | 1019.4 |
| 20260507033940 | 10 | 224 | 0.0 | 3.2 | 0.00 | 0.28 | 0.28 | 40 | 1019.6 |
| 20260507033438 | 10 | 220 | 0.0 | 3.2 | 0.00 | 0.28 | 0.28 | 41 | 1019.4 |
| 20260507032934 | 10 | 215 | 0.0 | 3.2 | 0.00 | 0.28 | 0.28 | 41 | 1019.5 |
| 20260507032431 | 10 | 229 | 0.0 | 1.6 | 0.00 | 0.28 | 0.28 | 40 | 1019.3 |
| 20260507031927 | 10 | 237 | 0.0 | 0.0 | 0.00 | 0.28 | 0.28 | 39 | 1019.1 |
| 20260507031426 | 10 | 226 | 0.0 | 1.6 | 0.00 | 0.28 | 0.28 | 40 | 1018.9 |
| 20260507030921 | 10 | 213 | 0.0 | 1.6 | 0.00 | 0.28 | 0.28 | 40 | 1018.9 |
| 20260507030418 | 10 | 244 | 0.0 | 1.6 | 0.00 | 0.28 | 0.28 | 39 | 1018.9 |
| 20260507025915 | 11 | 246 | 0.0 | 0.0 | 0.00 | 0.28 | 0.28 | 38 | 1019.0 |
| 20260507025412 | 10 | 233 | 0.0 | 0.0 | 0.00 | 0.28 | 0.28 | 40 | 1018.9 |
| 20260507024910 | 11 | 234 | 0.0 | 0.0 | 0.00 | 0.28 | 0.28 | 39 | 1019.0 |
| 20260507024407 | 11 | 217 | 0.0 | 0.0 | 0.00 | 0.28 | 0.28 | 37 | 1019.0 |
| 20260507023903 | 12 | 257 | 0.0 | 0.0 | 0.00 | 0.28 | 0.28 | 35 | 1018.9 |
| 20260507023400 | 12 | 259 | 0.0 | 0.0 | 0.00 | 0.28 | 0.28 | 34 | 1019.0 |
| 20260507022857 | 13 | 238 | 0.0 | 0.0 | 0.00 | 0.28 | 0.28 | 32 | 1019.0 |
| 20260507022354 | 13 | 71 | 0.0 | 0.0 | 0.00 | 0.28 | 0.28 | 28 | 1018.9 |
| 20260507021850 | 13 | 63 | 0.0 | 0.0 | 0.00 | 0.28 | 0.28 | 29 | 1018.8 |
| 20260507021345 | 13 | 58 | 0.0 | 0.0 | 0.00 | 0.28 | 0.28 | 28 | 1018.8 |
| 20260507020843 | 13 | 53 | 0.0 | 0.0 | 0.00 | 0.28 | 0.28 | 28 | 1018.6 |
| 20260507020339 | 14 | 44 | 0.0 | 0.0 | 0.00 | 0.28 | 0.28 | 27 | 1018.6 |
| 20260507015836 | 14 | 39 | 0.0 | 0.0 | 0.00 | 0.28 | 0.28 | 27 | 1018.7 |
| 20260507015335 | 14 | 50 | 0.0 | 0.0 | 0.00 | 0.28 | 0.28 | 28 | 1018.7 |
| 20260507014831 | 14 | 70 | 0.0 | 0.0 | 0.00 | 0.28 | 0.28 | 26 | 1018.7 |
| 20260507014327 | 15 | 61 | 0.0 | 3.2 | 0.00 | 0.28 | 0.28 | 25 | 1018.7 |
| 20260507013824 | 15 | 42 | 0.0 | 1.6 | 0.00 | 0.28 | 0.28 | 26 | 1018.6 |
| 20260507013321 | 15 | 47 | 0.0 | 1.6 | 0.00 | 0.28 | 0.28 | 26 | 1018.9 |
| 20260507012819 | 15 | 71 | 0.0 | 3.2 | 0.00 | 0.28 | 0.28 | 25 | 1018.8 |
| 20260507012314 | 15 | 47 | 0.0 | 3.2 | 0.00 | 0.28 | 0.28 | 26 | 1018.7 |
| 20260507011806 | 15 | 0 | 0.0 | 3.2 | 0.00 | 0.28 | 0.28 | 25 | 1019.0 |
| 20260507011303 | 15 | 39 | 1.6 | 3.2 | 0.00 | 0.28 | 0.28 | 25 | 1018.7 |
| 20260507010802 | 15 | 64 | 3.2 | 3.2 | 0.00 | 0.28 | 0.28 | 25 | 1018.9 |
| 20260507010258 | 15 | 49 | 0.0 | 4.8 | 0.00 | 0.28 | 0.28 | 24 | 1018.8 |
| 20260507005756 | 15 | 20 | 4.8 | 4.8 | 0.00 | 0.28 | 0.28 | 24 | 1018.7 |
| 20260507005252 | 15 | 26 | 3.2 | 4.8 | 0.00 | 0.28 | 0.28 | 24 | 1018.8 |
| 20260507004749 | 15 | 53 | 3.2 | 3.2 | 0.00 | 0.28 | 0.28 | 24 | 1018.9 |
| 20260507004247 | 16 | 35 | 3.2 | 4.8 | 0.00 | 0.28 | 0.28 | 24 | 1019.1 |
| 20260507003743 | 16 | 79 | 3.2 | 4.8 | 0.00 | 0.28 | 0.28 | 24 | 1018.8 |
| 20260507003238 | 16 | 14 | 4.8 | 4.8 | 0.00 | 0.28 | 0.28 | 23 | 1018.9 |
| 20260507002734 | 15 | 19 | 3.2 | 4.8 | 0.00 | 0.28 | 0.28 | 24 | 1018.7 |
| 20260507002230 | 15 | 20 | 3.2 | 4.8 | 0.00 | 0.28 | 0.28 | 24 | 1019.0 |
| 20260507001727 | 16 | 6 | 1.6 | 8.0 | 0.00 | 0.28 | 0.28 | 24 | 1018.9 |
| 20260507001225 | 16 | 17 | 1.6 | 4.8 | 0.00 | 0.28 | 0.28 | 24 | 1018.8 |
| 20260507000721 | 16 | 313 | 1.6 | 4.8 | 0.00 | 0.28 | 0.28 | 24 | 1018.8 |
| 20260507000216 | 15 | 10 | 3.2 | 9.7 | 0.00 | 0.28 | 0.28 | 24 | 1018.8 |
| 20260506235714 | 15 | 25 | 3.2 | 4.8 | 0.00 | 0.28 | 0.28 | 24 | 1018.7 |
| 20260506235209 | 15 | 29 | 4.8 | 8.0 | 0.00 | 0.28 | 0.28 | 24 | 1018.9 |
| 20260506234706 | 15 | 289 | 1.6 | 4.8 | 0.00 | 0.28 | 0.28 | 25 | 1018.7 |
| 20260506234204 | 15 | 279 | 1.6 | 3.2 | 0.00 | 0.28 | 0.28 | 24 | 1018.6 |
| 20260506233701 | 16 | 50 | 4.8 | 9.7 | 0.00 | 0.28 | 0.28 | 23 | 1018.8 |
| 20260506233157 | 16 | 8 | 6.4 | 8.0 | 0.00 | 0.28 | 0.28 | 23 | 1018.7 |
| 20260506232654 | 16 | 11 | 3.2 | 4.8 | 0.00 | 0.28 | 0.28 | 24 | 1018.9 |
| 20260506232149 | 16 | 10 | 3.2 | 8.0 | 0.00 | 0.28 | 0.28 | 24 | 1018.7 |
| 20260506231646 | 15 | 48 | 4.8 | 8.0 | 0.00 | 0.28 | 0.28 | 24 | 1018.9 |
| 20260506231145 | 16 | 14 | 6.4 | 8.0 | 0.00 | 0.28 | 0.28 | 24 | 1018.9 |
| 20260506230641 | 15 | 0 | 3.2 | 9.7 | 0.00 | 0.28 | 0.28 | 24 | 1018.7 |
| 20260506230138 | 16 | 14 | 4.8 | 4.8 | 0.00 | 0.28 | 0.28 | 24 | 1018.9 |
| 20260506225635 | 15 | 26 | 3.2 | 8.0 | 0.00 | 0.28 | 0.28 | 24 | 1018.9 |
| 20260506225131 | 15 | 318 | 0.0 | 4.8 | 0.00 | 0.28 | 0.28 | 25 | 1018.8 |
| 20260506224628 | 15 | 355 | 6.4 | 14.5 | 0.00 | 0.28 | 0.28 | 25 | 1019.3 |
| 20260506224124 | 15 | 352 | 3.2 | 8.0 | 0.00 | 0.28 | 0.28 | 24 | 1018.8 |
| 20260506223621 | 15 | 27 | 4.8 | 8.0 | 0.00 | 0.28 | 0.28 | 24 | 1019.0 |
| 20260506223117 | 15 | 281 | 6.4 | 14.5 | 0.00 | 0.28 | 0.28 | 24 | 1019.0 |
| 20260506222614 | 15 | 270 | 3.2 | 8.0 | 0.00 | 0.28 | 0.28 | 25 | 1019.0 |
| 20260506222110 | 15 | 339 | 4.8 | 8.0 | 0.00 | 0.28 | 0.28 | 25 | 1019.0 |
| 20260506221608 | 15 | 331 | 4.8 | 12.9 | 0.00 | 0.28 | 0.28 | 25 | 1019.3 |
| 20260506221106 | 15 | 84 | 3.2 | 8.0 | 0.00 | 0.28 | 0.28 | 26 | 1019.1 |
| 20260506220602 | 15 | 15 | 4.8 | 8.0 | 0.00 | 0.28 | 0.28 | 26 | 1019.4 |
| 20260506220057 | 15 | 18 | 6.4 | 9.7 | 0.00 | 0.28 | 0.28 | 26 | 1019.0 |
| 20260506215554 | 14 | 14 | 4.8 | 8.0 | 0.00 | 0.28 | 0.28 | 27 | 1019.3 |
| 20260506215050 | 15 | 316 | 4.8 | 11.3 | 0.00 | 0.28 | 0.28 | 27 | 1019.4 |
| 20260506214547 | 15 | 36 | 4.8 | 12.9 | 0.00 | 0.28 | 0.28 | 26 | 1019.3 |
| 20260506214044 | 14 | 9 | 4.8 | 8.0 | 0.00 | 0.28 | 0.28 | 27 | 1019.5 |
| 20260506213543 | 14 | 30 | 3.2 | 8.0 | 0.00 | 0.28 | 0.28 | 27 | 1019.7 |
| 20260506213040 | 15 | 309 | 4.8 | 8.0 | 0.00 | 0.28 | 0.28 | 27 | 1019.5 |
| 20260506212536 | 14 | 349 | 0.0 | 4.8 | 0.00 | 0.28 | 0.28 | 28 | 1019.6 |
| 20260506212031 | 14 | 331 | 6.4 | 9.7 | 0.00 | 0.28 | 0.28 | 27 | 1019.7 |
| 20260506211527 | 14 | 11 | 4.8 | 8.0 | 0.00 | 0.28 | 0.28 | 28 | 1019.6 |
| 20260506211024 | 13 | 347 | 1.6 | 9.7 | 0.00 | 0.28 | 0.28 | 27 | 1019.6 |
| 20260506210521 | 14 | 32 | 1.6 | 11.3 | 0.00 | 0.28 | 0.28 | 28 | 1019.7 |
| 20260506210017 | 14 | 350 | 1.6 | 8.0 | 0.00 | 0.28 | 0.28 | 27 | 1019.5 |
| 20260506205514 | 13 | 1 | 3.2 | 4.8 | 0.00 | 0.28 | 0.28 | 27 | 1019.6 |
| 20260506205009 | 13 | 336 | 0.0 | 4.8 | 0.00 | 0.28 | 0.28 | 28 | 1019.6 |
| 20260506204508 | 13 | 339 | 6.4 | 14.5 | 0.00 | 0.28 | 0.28 | 27 | 1019.6 |
| 20260506204004 | 13 | 322 | 3.2 | 9.7 | 0.00 | 0.28 | 0.28 | 28 | 1019.5 |
| 20260506203502 | 13 | 15 | 4.8 | 14.5 | 0.00 | 0.28 | 0.28 | 27 | 1019.6 |
| 20260506202958 | 13 | 348 | 1.6 | 11.3 | 0.00 | 0.28 | 0.28 | 28 | 1019.6 |
| 20260506202455 | 13 | 334 | 6.4 | 11.3 | 0.00 | 0.28 | 0.28 | 27 | 1019.5 |
| 20260506201946 | 13 | 4 | 3.2 | 8.0 | 0.00 | 0.28 | 0.28 | 28 | 1019.5 |
| 20260506201444 | 13 | 268 | 4.8 | 11.3 | 0.00 | 0.28 | 0.28 | 28 | 1019.6 |
| 20260506200941 | 13 | 335 | 4.8 | 9.7 | 0.00 | 0.28 | 0.28 | 28 | 1019.6 |
| 20260506200437 | 13 | 5 | 4.8 | 9.7 | 0.00 | 0.28 | 0.28 | 29 | 1019.4 |
| 20260506195933 | 13 | 6 | 6.4 | 9.7 | 0.00 | 0.28 | 0.28 | 28 | 1019.6 |
| 20260506195430 | 13 | 324 | 3.2 | 8.0 | 0.00 | 0.28 | 0.28 | 29 | 1019.4 |
| 20260506194927 | 13 | 349 | 4.8 | 8.0 | 0.00 | 0.28 | 0.28 | 29 | 1019.6 |
| 20260506194424 | 13 | 74 | 3.2 | 8.0 | 0.00 | 0.28 | 0.28 | 29 | 1019.5 |
| 20260506193921 | 13 | 325 | 3.2 | 9.7 | 0.00 | 0.28 | 0.28 | 28 | 1019.6 |
| 20260506193419 | 13 | 14 | 3.2 | 14.5 | 0.00 | 0.28 | 0.28 | 28 | 1019.6 |
| 20260506192915 | 12 | 13 | 8.0 | 9.7 | 0.00 | 0.28 | 0.28 | 28 | 1019.4 |
| 20260506192412 | 12 | 2 | 4.8 | 12.9 | 0.00 | 0.28 | 0.28 | 28 | 1019.3 |
| 20260506191909 | 12 | 12 | 6.4 | 16.1 | 0.00 | 0.28 | 0.28 | 26 | 1019.3 |
| 20260506191405 | 12 | 329 | 6.4 | 12.9 | 0.00 | 0.28 | 0.28 | 28 | 1019.4 |
| 20260506190902 | 12 | 21 | 4.8 | 4.8 | 0.00 | 0.28 | 0.28 | 28 | 1019.5 |
| 20260506190358 | 12 | 5 | 3.2 | 22.5 | 0.00 | 0.28 | 0.28 | 28 | 1019.5 |
| 20260506185855 | 12 | 354 | 6.4 | 12.9 | 0.00 | 0.28 | 0.28 | 30 | 1019.4 |
| 20260506185352 | 12 | 24 | 3.2 | 9.7 | 0.00 | 0.28 | 0.28 | 28 | 1019.5 |
| 20260506184849 | 12 | 352 | 6.4 | 9.7 | 0.00 | 0.28 | 0.28 | 28 | 1019.5 |
| 20260506184346 | 12 | 0 | 8.0 | 11.3 | 0.00 | 0.28 | 0.28 | 27 | 1019.5 |
| 20260506183844 | 12 | 289 | 3.2 | 8.0 | 0.00 | 0.28 | 0.28 | 28 | 1019.3 |
| 20260506183339 | 12 | 358 | 6.4 | 9.7 | 0.00 | 0.28 | 0.28 | 27 | 1019.4 |
| 20260506182836 | 11 | 354 | 4.8 | 8.0 | 0.00 | 0.28 | 0.28 | 28 | 1019.5 |
| 20260506182333 | 11 | 354 | 8.0 | 16.1 | 0.00 | 0.28 | 0.28 | 26 | 1019.6 |
| 20260506181831 | 11 | 11 | 6.4 | 8.0 | 0.00 | 0.28 | 0.28 | 29 | 1019.5 |
| 20260506181329 | 11 | 9 | 4.8 | 8.0 | 0.00 | 0.28 | 0.28 | 28 | 1019.5 |
| 20260506180826 | 11 | 19 | 6.4 | 8.0 | 0.00 | 0.28 | 0.28 | 28 | 1019.6 |
| 20260506180321 | 11 | 18 | 9.7 | 14.5 | 0.00 | 0.28 | 0.28 | 29 | 1019.4 |
| 20260506175818 | 11 | 32 | 4.8 | 9.7 | 0.00 | 0.28 | 0.28 | 25 | 1019.4 |
| 20260506175315 | 11 | 21 | 3.2 | 9.7 | 0.00 | 0.28 | 0.28 | 29 | 1019.5 |
| 20260506174812 | 11 | 24 | 4.8 | 12.9 | 0.00 | 0.28 | 0.28 | 27 | 1019.4 |
| 20260506174309 | 11 | 338 | 8.0 | 9.7 | 0.00 | 0.28 | 0.28 | 27 | 1019.3 |
| 20260506173807 | 11 | 339 | 8.0 | 14.5 | 0.00 | 0.28 | 0.28 | 27 | 1019.0 |
| 20260506173304 | 11 | 336 | 6.4 | 14.5 | 0.00 | 0.28 | 0.28 | 28 | 1019.1 |
| 20260506172801 | 11 | 330 | 9.7 | 12.9 | 0.00 | 0.28 | 0.28 | 28 | 1019.3 |
| 20260506172257 | 10 | 6 | 8.0 | 14.5 | 0.00 | 0.28 | 0.28 | 30 | 1018.9 |
| 20260506171755 | 10 | 14 | 4.8 | 8.0 | 0.00 | 0.28 | 0.28 | 29 | 1019.1 |
| 20260506171251 | 10 | 336 | 8.0 | 12.9 | 0.00 | 0.28 | 0.28 | 29 | 1018.9 |
| 20260506170749 | 11 | 356 | 4.8 | 11.3 | 0.00 | 0.28 | 0.28 | 30 | 1018.9 |
| 20260506170245 | 10 | 333 | 4.8 | 8.0 | 0.00 | 0.28 | 0.28 | 31 | 1018.7 |
| 20260506165744 | 10 | 30 | 8.0 | 9.7 | 0.00 | 0.28 | 0.28 | 28 | 1019.0 |
| 20260506165241 | 10 | 357 | 6.4 | 8.0 | 0.00 | 0.28 | 0.28 | 31 | 1018.6 |
| 20260506164738 | 10 | 18 | 3.2 | 9.7 | 0.00 | 0.28 | 0.28 | 31 | 1018.7 |
| 20260506164235 | 10 | 198 | 3.2 | 8.0 | 0.00 | 0.28 | 0.28 | 28 | 1018.4 |
| 20260506163731 | 10 | 24 | 4.8 | 8.0 | 0.00 | 0.28 | 0.28 | 28 | 1018.6 |
| 20260506163226 | 10 | 15 | 8.0 | 12.9 | 0.00 | 0.28 | 0.28 | 27 | 1018.4 |
| 20260506162723 | 10 | 304 | 4.8 | 8.0 | 0.00 | 0.28 | 0.28 | 29 | 1018.3 |
| 20260506162220 | 10 | 3 | 4.8 | 11.3 | 0.00 | 0.28 | 0.28 | 27 | 1018.3 |
| 20260506161718 | 10 | 350 | 6.4 | 12.9 | 0.00 | 0.28 | 0.28 | 26 | 1018.2 |
| 20260506161215 | 10 | 345 | 4.8 | 12.9 | 0.00 | 0.28 | 0.28 | 25 | 1018.0 |
| 20260506160712 | 10 | 358 | 4.8 | 9.7 | 0.00 | 0.28 | 0.28 | 27 | 1017.9 |
| 20260506160209 | 10 | 276 | 3.2 | 9.7 | 0.00 | 0.28 | 0.28 | 27 | 1018.0 |
| 20260506155707 | 10 | 346 | 6.4 | 8.0 | 0.00 | 0.28 | 0.28 | 34 | 1017.9 |
| 20260506155204 | 10 | 327 | 6.4 | 9.7 | 0.00 | 0.28 | 0.28 | 36 | 1018.0 |
| 20260506153306 | 10 | 17 | 4.8 | 9.7 | 0.00 | 0.28 | 0.28 | 37 | 1017.5 |
| 20260506152803 | 10 | 6 | 3.2 | 8.0 | 0.00 | 0.28 | 0.28 | 39 | 1017.5 |
| 20260506152300 | 10 | 13 | 6.4 | 8.0 | 0.00 | 0.28 | 0.28 | 39 | 1017.6 |
| 20260506151759 | 10 | 6 | 1.6 | 8.0 | 0.00 | 0.28 | 0.28 | 42 | 1017.4 |
| 20260506151255 | 9 | 354 | 4.8 | 9.7 | 0.00 | 0.28 | 0.28 | 40 | 1017.5 |
| 20260506150751 | 9 | 305 | 4.8 | 12.9 | 0.00 | 0.28 | 0.28 | 41 | 1017.4 |
| 20260506150249 | 9 | 292 | 3.2 | 12.9 | 0.00 | 0.28 | 0.28 | 39 | 1017.2 |
| 20260506145746 | 9 | 6 | 4.8 | 11.3 | 0.00 | 0.28 | 0.28 | 46 | 1017.3 |
| 20260506145242 | 9 | 2 | 3.2 | 4.8 | 0.00 | 0.28 | 0.28 | 49 | 1017.1 |
| 20260506144739 | 8 | 8 | 4.8 | 8.0 | 0.00 | 0.28 | 0.28 | 48 | 1017.1 |
| 20260506144236 | 9 | 2 | 4.8 | 4.8 | 0.00 | 0.28 | 0.28 | 48 | 1017.2 |
| 20260506143734 | 8 | 359 | 1.6 | 4.8 | 0.00 | 0.28 | 0.28 | 45 | 1016.8 |
| 20260506143231 | 8 | 332 | 4.8 | 8.0 | 0.00 | 0.28 | 0.28 | 46 | 1016.9 |
| 20260506142730 | 8 | 27 | 4.8 | 4.8 | 0.00 | 0.28 | 0.28 | 48 | 1016.9 |
| 20260506142227 | 8 | 3 | 4.8 | 4.8 | 0.00 | 0.28 | 0.28 | 48 | 1016.9 |
| 20260506141725 | 8 | 12 | 4.8 | 8.0 | 0.00 | 0.28 | 0.28 | 48 | 1016.9 |
| 20260506141224 | 8 | 4 | 4.8 | 8.0 | 0.00 | 0.28 | 0.28 | 48 | 1016.9 |
| 20260506140721 | 8 | 331 | 6.4 | 8.0 | 0.00 | 0.28 | 0.28 | 49 | 1017.1 |
| 20260506140217 | 8 | 7 | 3.2 | 4.8 | 0.00 | 0.28 | 0.28 | 52 | 1016.8 |
| 20260506135714 | 8 | 18 | 0.0 | 4.8 | 0.00 | 0.28 | 0.28 | 54 | 1016.5 |
| 20260506135210 | 8 | 343 | 1.6 | 3.2 | 0.00 | 0.28 | 0.28 | 53 | 1016.8 |
| 20260506134707 | 8 | 8 | 1.6 | 3.2 | 0.00 | 0.28 | 0.28 | 55 | 1016.5 |
| 20260506134203 | 7 | 5 | 0.0 | 3.2 | 0.00 | 0.28 | 0.28 | 54 | 1016.7 |
| 20260506133701 | 7 | 5 | 3.2 | 4.8 | 0.00 | 0.28 | 0.28 | 53 | 1016.5 |
| 20260506133157 | 7 | 359 | 4.8 | 4.8 | 0.00 | 0.28 | 0.28 | 55 | 1016.5 |